FW3687 Weather Reports


time (UTC)temp
C
wind
direction
speed
KPH
gust
KPH
rain 1hr
cm
rain 24hr
cm
rain mn
cm
humidity
%
barometer
mb
20260906192019 39 317 1.6 6.4 0.00 0.00 0.00 23 1011.1
20260906191519 39 232 4.8 6.4 0.00 0.00 0.00 24 1011.2
20260906191018 38 152 1.6 9.7 0.00 0.00 0.00 24 1011.2
20260906190518 38 235 1.6 12.9 0.00 0.00 0.00 26 1011.3
20260906185019 38 11 0.0 3.2 0.00 0.00 0.00 27 1011.5
20260906184519 38 13 0.0 6.4 0.00 0.00 0.00 27 1011.6
20260906184019 38 12 0.0 12.9 0.00 0.00 0.00 27 1011.5
20260906183519 38 348 6.4 12.9 0.00 0.00 0.00 26 1011.7
20260906183019 38 349 1.6 12.9 0.00 0.00 0.00 27 1011.8
20260906181519 38 41 0.0 4.8 0.00 0.00 0.00 27 1012.2
20260906180019 38 5 0.0 6.4 0.00 0.00 0.00 28 1012.5
20260906175519 37 5 0.0 9.7 0.00 0.00 0.00 28 1012.5
20260906174519 37 234 1.6 4.8 0.00 0.00 0.00 29 1012.8
20260906174018 37 159 0.0 8.0 0.00 0.00 0.00 28 1012.8
20260906173527 37 178 0.0 6.4 0.00 0.00 0.00 28 1012.8
20260906173019 37 218 3.2 6.4 0.00 0.00 0.00 29 1013.0
20260906172518 37 248 3.2 6.4 0.00 0.00 0.00 29 1013.1
20260906172018 37 200 1.6 8.0 0.00 0.00 0.00 30 1013.1
20260906171519 37 327 3.2 6.4 0.00 0.00 0.00 30 1013.1
20260906170518 36 292 0.0 1.6 0.00 0.00 0.00 32 1013.3
20260906170018 36 286 0.0 6.4 0.00 0.00 0.00 32 1013.4
20260906164519 36 311 0.0 3.2 0.00 0.00 0.00 35 1013.6
20260906164019 35 310 0.0 6.4 0.00 0.00 0.00 35 1013.6
20260906163518 35 339 1.6 6.4 0.00 0.00 0.00 37 1013.6
20260906163020 35 269 0.0 3.2 0.00 0.00 0.00 38 1013.6
20260906162518 34 273 0.0 1.6 0.00 0.00 0.00 40 1013.6
20260906162019 34 271 0.0 3.2 0.00 0.00 0.00 39 1013.6
20260906161519 34 275 0.0 3.2 0.00 0.00 0.00 39 1013.6
20260906161018 33 274 0.0 4.8 0.00 0.00 0.00 41 1013.5
20260906160519 33 327 1.6 4.8 0.00 0.00 0.00 42 1013.6
20260906160019 33 203 3.2 4.8 0.00 0.00 0.00 42 1013.6
20260906155518 33 180 0.0 0.0 0.00 0.00 0.00 43 1013.6
20260906155019 33 180 0.0 0.0 0.00 0.00 0.00 43 1013.6
20260906154519 32 180 0.0 3.2 0.00 0.00 0.00 43 1013.6
20260906154019 32 180 0.0 3.2 0.00 0.00 0.00 45 1013.6
20260906153518 32 180 0.0 3.2 0.00 0.00 0.00 46 1013.5
20260906153019 31 180 0.0 4.8 0.00 0.00 0.00 46 1013.6
20260906152519 31 182 0.0 4.8 0.00 0.00 0.00 47 1013.5
20260906152019 31 281 0.0 0.0 0.00 0.00 0.00 48 1013.5
20260906151519 31 275 0.0 0.0 0.00 0.00 0.00 48 1013.5
20260906151018 30 288 0.0 0.0 0.00 0.00 0.00 48 1013.4
20260906150518 30 290 0.0 0.0 0.00 0.00 0.00 49 1013.5
20260906150020 30 328 0.0 1.6 0.00 0.00 0.00 49 1013.4
20260906145019 30 329 0.0 3.2 0.00 0.00 0.00 50 1013.4
20260906144519 30 329 0.0 3.2 0.00 0.00 0.00 50 1013.4
20260906144018 29 340 0.0 4.8 0.00 0.00 0.00 50 1013.4
20260906143518 29 336 0.0 4.8 0.00 0.00 0.00 50 1013.4
20260906143019 29 188 0.0 0.0 0.00 0.00 0.00 50 1013.3
20260906142519 28 188 0.0 0.0 0.00 0.00 0.00 51 1013.4
20260906142018 28 188 0.0 0.0 0.00 0.00 0.00 51 1013.3
20260906141519 28 188 0.0 1.6 0.00 0.00 0.00 51 1013.4
20260906141018 28 188 0.0 1.6 0.00 0.00 0.00 51 1013.4
20260906140019 27 178 0.0 0.0 0.00 0.00 0.00 52 1013.3
20260906135518 27 178 0.0 0.0 0.00 0.00 0.00 53 1013.2
20260906135018 27 177 0.0 0.0 0.00 0.00 0.00 54 1013.1
20260906134519 27 177 0.0 0.0 0.00 0.00 0.00 54 1013.2
20260906134018 27 176 0.0 4.8 0.00 0.00 0.00 54 1013.2
20260906133019 26 175 0.0 0.0 0.00 0.00 0.00 55 1013.2
20260906132519 26 175 0.0 0.0 0.00 0.00 0.00 55 1013.2
20260906132018 26 175 0.0 0.0 0.00 0.00 0.00 55 1013.1
20260906131519 26 175 0.0 0.0 0.00 0.00 0.00 56 1013.1
20260906131018 26 175 0.0 0.0 0.00 0.00 0.00 56 1013.1
20260906130519 25 175 0.0 0.0 0.00 0.00 0.00 57 1013.1
20260906130020 25 175 0.0 0.0 0.00 0.00 0.00 57 1013.2
20260906125519 25 175 0.0 0.0 0.00 0.00 0.00 58 1013.1
20260906125019 25 175 0.0 0.0 0.00 0.00 0.00 58 1013.1
20260906124519 25 175 0.0 0.0 0.00 0.00 0.00 58 1013.1
20260906124019 25 175 0.0 0.0 0.00 0.00 0.00 58 1013.0
20260906123519 25 175 0.0 0.0 0.00 0.00 0.00 57 1012.9
20260906123020 25 175 0.0 0.0 0.00 0.00 0.00 57 1012.8
20260906122519 25 175 0.0 0.0 0.00 0.00 0.00 57 1012.8
20260906122018 25 175 0.0 0.0 0.00 0.00 0.00 57 1012.8
20260906121519 25 175 0.0 0.0 0.00 0.00 0.00 58 1012.7
20260906120519 25 175 0.0 0.0 0.00 0.00 0.00 58 1012.6
20260906120019 25 175 0.0 0.0 0.00 0.00 0.00 59 1012.6
20260906115518 25 175 0.0 0.0 0.00 0.00 0.00 59 1012.6
20260906115018 25 175 0.0 0.0 0.00 0.00 0.00 59 1012.4
20260906114519 25 175 0.0 0.0 0.00 0.00 0.00 58 1012.4
20260906114019 25 175 0.0 0.0 0.00 0.00 0.00 58 1012.4
20260906113519 25 175 0.0 0.0 0.00 0.00 0.00 58 1012.3
20260906113019 25 175 0.0 0.0 0.00 0.00 0.00 58 1012.2
20260906112518 25 175 0.0 0.0 0.00 0.00 0.00 58 1012.2
20260906112019 25 175 0.0 0.0 0.00 0.00 0.00 57 1012.1
20260906111519 25 175 0.0 0.0 0.00 0.00 0.00 57 1012.0
20260906110518 25 175 0.0 0.0 0.00 0.00 0.00 57 1011.9
20260906110019 25 175 0.0 0.0 0.00 0.00 0.00 57 1011.8
20260906105518 25 175 0.0 0.0 0.00 0.00 0.00 57 1011.8
20260906105020 25 175 0.0 0.0 0.00 0.00 0.00 57 1011.9
20260906104519 25 175 0.0 0.0 0.00 0.00 0.00 57 1012.0
20260906104019 25 175 0.0 0.0 0.00 0.00 0.00 57 1012.0
20260906103519 25 175 0.0 0.0 0.00 0.00 0.00 58 1011.9
20260906103019 25 175 0.0 0.0 0.00 0.00 0.00 57 1012.0
20260906102518 25 175 0.0 0.0 0.00 0.00 0.00 58 1012.0
20260906102019 25 175 0.0 0.0 0.00 0.00 0.00 58 1011.9
20260906101519 26 175 0.0 0.0 0.00 0.00 0.00 58 1011.9
20260906101019 26 175 0.0 0.0 0.00 0.00 0.00 58 1011.9
20260906100518 26 175 0.0 0.0 0.00 0.00 0.00 58 1011.9
20260906100019 26 175 0.0 0.0 0.00 0.00 0.00 57 1012.0
20260906095519 26 175 0.0 0.0 0.00 0.00 0.00 57 1012.0
20260906095019 26 175 0.0 0.0 0.00 0.00 0.00 57 1012.0
20260906094519 26 175 0.0 0.0 0.00 0.00 0.00 57 1011.9
20260906094018 26 175 0.0 0.0 0.00 0.00 0.00 56 1011.9
20260906093519 26 175 0.0 0.0 0.00 0.00 0.00 56 1011.9
20260906093019 26 175 0.0 0.0 0.00 0.00 0.00 56 1011.8
20260906092518 26 175 0.0 0.0 0.00 0.00 0.00 55 1011.7
20260906092018 26 175 0.0 0.0 0.00 0.00 0.00 55 1011.7
20260906091519 26 175 0.0 0.0 0.00 0.00 0.00 55 1011.8
20260906091019 26 175 0.0 0.0 0.00 0.00 0.00 54 1011.8
20260906090518 26 175 0.0 0.0 0.00 0.00 0.00 54 1011.7
20260906090019 26 175 0.0 0.0 0.00 0.00 0.00 54 1011.7
20260906085519 26 175 0.0 0.0 0.00 0.00 0.00 54 1011.6
20260906084519 26 175 0.0 0.0 0.00 0.00 0.00 54 1011.6
20260906084018 26 175 0.0 0.0 0.00 0.00 0.00 54 1011.5
20260906083518 26 175 0.0 0.0 0.00 0.00 0.00 54 1011.4
20260906083020 26 175 0.0 0.0 0.00 0.00 0.00 54 1011.4
20260906082518 26 175 0.0 0.0 0.00 0.00 0.00 55 1011.2
20260906082018 26 175 0.0 0.0 0.00 0.00 0.00 54 1011.2
20260906081519 26 175 0.0 0.0 0.00 0.00 0.00 54 1011.2
20260906081018 26 175 0.0 0.0 0.00 0.00 0.00 54 1011.2
20260906080019 26 175 0.0 0.0 0.00 0.00 0.00 54 1011.3
20260906075519 26 175 0.0 0.0 0.00 0.00 0.00 54 1011.2
20260906075018 26 175 0.0 0.0 0.00 0.00 0.00 54 1011.2
20260906074519 26 175 0.0 0.0 0.00 0.00 0.00 54 1011.1
20260906073518 27 175 0.0 0.0 0.00 0.00 0.00 54 1010.9
20260906073019 27 175 0.0 0.0 0.00 0.00 0.00 54 1011.0
20260906072518 27 175 0.0 0.0 0.00 0.00 0.00 53 1011.2
20260906071519 27 175 0.0 0.0 0.00 0.00 0.00 53 1011.2
20260906070019 27 175 0.0 0.0 0.00 0.00 0.00 53 1011.4
20260906065519 27 175 0.0 0.0 0.00 0.00 0.00 53 1011.3
20260906065018 27 175 0.0 0.0 0.00 0.00 0.00 53 1011.3
20260906064519 27 175 0.0 0.0 0.00 0.00 0.00 53 1011.3
20260906064018 27 175 0.0 0.0 0.00 0.00 0.00 52 1011.3
20260906063518 27 175 0.0 0.0 0.00 0.00 0.00 52 1011.3
20260906063019 27 175 0.0 0.0 0.00 0.00 0.00 52 1011.3
20260906062518 27 175 0.0 0.0 0.00 0.00 0.00 52 1011.4
20260906062018 27 175 0.0 0.0 0.00 0.00 0.00 52 1011.3
20260906061518 27 175 0.0 0.0 0.00 0.00 0.00 52 1011.3
20260906060518 27 175 0.0 0.0 0.00 0.00 0.00 51 1011.4
20260906060018 28 175 0.0 0.0 0.00 0.00 0.00 51 1011.4
20260906055518 28 175 0.0 0.0 0.00 0.00 0.00 50 1011.5
20260906055018 28 175 0.0 0.0 0.00 0.00 0.00 50 1011.4
20260906054519 28 175 0.0 0.0 0.00 0.00 0.00 50 1011.3
20260906054019 28 175 0.0 0.0 0.00 0.00 0.00 50 1011.4
20260906053519 28 175 0.0 0.0 0.00 0.00 0.00 50 1011.3
20260906053019 28 175 0.0 0.0 0.00 0.00 0.00 49 1011.2
20260906052518 28 175 0.0 0.0 0.00 0.00 0.00 49 1011.2
20260906051018 29 175 0.0 0.0 0.00 0.00 0.00 48 1011.1
20260906045518 29 175 0.0 1.6 0.00 0.00 0.00 48 1011.0
20260906045019 29 175 0.0 4.8 0.00 0.00 0.00 48 1011.1
20260906044018 28 176 0.0 0.0 0.00 0.00 0.00 49 1011.0
20260906043518 29 176 0.0 0.0 0.00 0.00 0.00 49 1011.0
20260906043019 29 176 0.0 0.0 0.00 0.00 0.00 49 1011.0
20260906042518 29 176 0.0 0.0 0.00 0.00 0.00 48 1011.0
20260906042018 29 176 0.0 0.0 0.00 0.00 0.00 48 1011.0
20260906041018 29 176 0.0 0.0 0.00 0.00 0.00 48 1011.0
20260906040519 29 176 0.0 1.6 0.00 0.00 0.00 48 1011.0
20260906040019 30 176 0.0 1.6 0.00 0.00 0.00 47 1011.1
20260906035518 30 176 0.0 0.0 0.00 0.00 0.00 47 1011.1
20260906035018 30 176 0.0 0.0 0.00 0.00 0.00 47 1011.1
20260906034519 30 176 0.0 0.0 0.00 0.00 0.00 47 1011.1
20260906033519 30 176 0.0 1.6 0.00 0.00 0.00 47 1011.0
20260906033019 30 176 0.0 0.0 0.00 0.00 0.00 46 1010.9
20260906032518 30 176 0.0 0.0 0.00 0.00 0.00 46 1011.0
20260906032018 30 176 0.0 0.0 0.00 0.00 0.00 46 1011.0
20260906031519 30 176 0.0 0.0 0.00 0.00 0.00 46 1011.2
20260906031018 30 176 0.0 0.0 0.00 0.00 0.00 46 1011.2
20260906030518 30 176 0.0 1.6 0.00 0.00 0.00 46 1011.2
20260906030019 30 176 0.0 1.6 0.00 0.00 0.00 46 1011.2
20260906025018 30 176 0.0 3.2 0.00 0.00 0.00 46 1011.1
20260906024519 31 176 0.0 0.0 0.00 0.00 0.00 46 1010.9
20260906023518 31 176 0.0 0.0 0.00 0.00 0.00 45 1010.7
20260906023019 31 176 0.0 0.0 0.00 0.00 0.00 44 1010.6
20260906022518 31 176 0.0 0.0 0.00 0.00 0.00 44 1010.5
20260906021519 31 176 0.0 0.0 0.00 0.00 0.00 43 1010.3
20260906021019 31 176 0.0 0.0 0.00 0.00 0.00 43 1010.2
20260906020518 31 176 0.0 0.0 0.00 0.00 0.00 41 1010.2
20260906015518 32 176 0.0 0.0 0.00 0.00 0.00 41 1010.2
20260906015019 32 176 0.0 0.0 0.00 0.00 0.00 40 1010.1
20260906014519 32 176 0.0 0.0 0.00 0.00 0.00 39 1010.1
20260906013518 32 176 0.0 0.0 0.00 0.00 0.00 38 1010.1
20260906013018 33 176 0.0 0.0 0.00 0.00 0.00 38 1010.0
20260906012519 33 176 0.0 0.0 0.00 0.00 0.00 37 1009.9
20260906011519 33 176 0.0 0.0 0.00 0.00 0.00 36 1009.9
20260906011018 34 176 0.0 0.0 0.00 0.00 0.00 36 1009.9
20260906010019 35 176 0.0 1.6 0.00 0.00 0.00 35 1009.9
20260906005518 35 176 0.0 1.6 0.00 0.00 0.00 34 1009.8
20260906005018 35 176 0.0 0.0 0.00 0.00 0.00 33 1009.8
20260906004518 35 176 0.0 0.0 0.00 0.00 0.00 32 1009.8
20260906003519 36 176 0.0 0.0 0.00 0.00 0.00 31 1009.7
20260906003019 36 176 0.0 0.0 0.00 0.00 0.00 31 1009.8
20260906002518 36 176 0.0 0.0 0.00 0.00 0.00 31 1009.7
20260906001518 36 176 0.0 4.8 0.00 0.00 0.00 29 1009.7
20260906000518 36 176 0.0 8.0 0.00 0.00 0.00 28 1009.7
20260906000019 36 180 8.0 8.0 0.00 0.00 0.00 28 1009.7
20260905235018 36 163 0.0 9.7 0.00 0.00 0.00 28 1009.7
20260905234519 36 163 1.6 9.7 0.00 0.00 0.00 27 1009.6
20260905234018 37 257 0.0 6.4 0.00 0.00 0.00 27 1009.5
20260905233518 37 178 0.0 9.7 0.00 0.00 0.00 26 1009.5
20260905233018 37 170 1.6 9.7 0.00 0.00 0.00 26 1009.5
20260905232518 37 169 0.0 9.7 0.00 0.00 0.00 26 1009.5
20260905231018 37 188 3.2 12.9 0.00 0.00 0.00 26 1009.5
20260905230518 37 157 1.6 8.0 0.00 0.00 0.00 26 1009.5
20260905230019 37 174 3.2 17.7 0.00 0.00 0.00 26 1009.4
20260905224519 37 175 3.2 9.7 0.00 0.00 0.00 25 1009.5
20260905224019 37 163 1.6 9.7 0.00 0.00 0.00 25 1009.6
20260905223518 37 171 0.0 12.9 0.00 0.00 0.00 24 1009.6
20260905223018 37 159 8.0 12.9 0.00 0.00 0.00 24 1009.7
20260905222518 37 171 8.0 12.9 0.00 0.00 0.00 23 1009.7
20260905222019 38 177 3.2 8.0 0.00 0.00 0.00 23 1009.7
20260905221518 38 147 4.8 6.4 0.00 0.00 0.00 24 1009.7
20260905221018 38 150 3.2 11.3 0.00 0.00 0.00 23 1009.7
20260905220518 38 166 6.4 8.0 0.00 0.00 0.00 23 1009.8
20260905220019 38 146 1.6 6.4 0.00 0.00 0.00 24 1009.8
20260905215518 38 360 0.0 3.2 0.00 0.00 0.00 25 1009.9
20260905215018 38 144 0.0 4.8 0.00 0.00 0.00 25 1009.9
20260905214518 38 144 1.6 8.0 0.00 0.00 0.00 25 1010.0
20260905214018 38 160 0.0 9.7 0.00 0.00 0.00 25 1010.1
20260905213518 38 157 4.8 9.7 0.00 0.00 0.00 24 1010.1
20260905213018 38 46 1.6 4.8 0.00 0.00 0.00 26 1010.1
20260905212518 38 157 0.0 4.8 0.00 0.00 0.00 26 1010.2
20260905212018 38 161 0.0 16.1 0.00 0.00 0.00 26 1010.3
20260905211019 38 159 1.6 12.9 0.00 0.00 0.00 26 1010.3
20260905210518 38 173 4.8 6.4 0.00 0.00 0.00 25 1010.4
20260905210018 38 213 1.6 4.8 0.00 0.00 0.00 26 1010.4
20260905205519 38 157 0.0 8.0 0.00 0.00 0.00 26 1010.5
20260905205018 38 190 0.0 11.3 0.00 0.00 0.00 26 1010.7
20260905204519 38 167 12.9 16.1 0.00 0.00 0.00 27 1010.7
20260905203019 38 360 0.0 11.3 0.00 0.00 0.00 27 1011.0
20260905202518 38 184 3.2 9.7 0.00 0.00 0.00 27 1011.0
20260905202018 38 167 8.0 11.3 0.00 0.00 0.00 26 1011.1
20260905201519 38 347 1.6 11.3 0.00 0.00 0.00 26 1011.1
20260905201018 38 165 6.4 16.1 0.00 0.00 0.00 27 1011.3
20260905200019 38 178 0.0 9.7 0.00 0.00 0.00 27 1011.5
20260905195518 38 261 4.8 9.7 0.00 0.00 0.00 28 1011.5
20260905195018 37 360 0.0 11.3 0.00 0.00 0.00 29 1011.6
20260905194518 37 198 3.2 11.3 0.00 0.00 0.00 29 1011.7
20260905193518 37 207 1.6 16.1 0.00 0.00 0.00 29 1012.0